Change the Weather History Date:

Saturday, March 9, 2013

  Actual Average Record
Temperature  
Mean Temperature 35 °F 31 °F  
Max Temperature 39 °F 40 °F 66 °F (1977)
Min Temperature 30 °F 22 °F -8 °F (1975)
Degree Days  
Heating Degree Days 30 34  
Month to date heating degree days 389 319  
Since 1 July heating degree days 5547 5805  
Cooling Degree Days 0 0  
Month to date cooling degree days 0 0  
Year to date cooling degree days 0 0  
Moisture  
Dew Point 31 °F    
Average Humidity 81    
Maximum Humidity 92    
Minimum Humidity 70    
Precipitation  
Precipitation 0.41 in 0.06 in 0.84 in (1918)
Month to date precipitation 0.95 0.55  
Year to date precipitation 6.23 3.23  
Snow  
Snow 0.20 in 0.30 in 5.70 in (1943)
Month to date snowfall 7.1 2.6  
Since 1 July snowfall 62.2 43.7  
Snow Depth 10.00 in    
Sea Level Pressure  
Sea Level Pressure 30.00 in    
Wind  
Wind Speed 11 mph (SSE)    
Max Wind Speed 22 mph    
Max Gust Speed 32 mph    
Visibility 6 miles    
Events Rain , Snow    
T = Trace of Precipitation, MM = Missing Value Source: NWS Daily Summary

Daily Weather History Graph

Daily Weather History Graph

Search for Another Location

Airport or City:

Trip Planner

Search our weather history database for the weather conditions in past years. The results will help you decide how hot, cold, wet, or windy it might be!

Date:

Astronomy

Mar. 09, 2013 Rise Set
Actual Time 6:19 AM CST 5:56 PM CST
Civil Twilight 5:51 AM CST 6:25 PM CST
Nautical Twilight 5:18 AM CST 6:58 PM CST
Astronomical Twilight 4:45 AM CST 7:31 PM CST
Moon 4:46 AM CST (3/9) 3:56 PM CST (3/9)
Length of Visible Light 12h 34m
Length of Day
11h 37m
Waning Crescent, 5% of the Moon is Illuminated
Mar 9
Waning Crescent
Mar 11
New
Mar 19
First Quarter
Mar 27
Full
Apr 2
Last Quarter

Hourly Weather History & Observations

Time (CST) Temp. Windchill Dew Point Humidity Pressure Visibility Wind Dir Wind Speed Gust Speed Precip Events Conditions
12:53 AM 30.0 °F 21.7 °F 23.0 °F 75% 30.27 in 8.0 mi SSE 9.2 mph - N/A   Clear
1:53 AM 30.9 °F 24.3 °F 23.0 °F 72% 30.25 in 8.0 mi Variable 6.9 mph - N/A   Clear
2:53 AM 30.9 °F 22.8 °F 23.0 °F 72% 30.21 in 8.0 mi SSE 9.2 mph - N/A   Clear
3:53 AM 32.0 °F 25.6 °F 24.1 °F 73% 30.19 in 9.0 mi SSE 6.9 mph - N/A   Mostly Cloudy
4:53 AM 32.0 °F 23.6 °F 25.0 °F 75% 30.19 in 9.0 mi SSE 10.4 mph - N/A   Overcast
5:53 AM 33.1 °F 24.4 °F 26.1 °F 75% 30.17 in 8.0 mi SSE 11.5 mph - N/A   Overcast
6:51 AM 33.8 °F 24.8 °F 26.6 °F 75% 30.13 in 7.0 mi South 12.7 mph 19.6 mph 0.00 in Rain Light Ice Pellets
6:53 AM 34.0 °F 25.0 °F 26.1 °F 73% 30.16 in 7.0 mi South 12.7 mph 19.6 mph 0.00 in Rain Light Ice Pellets
7:53 AM 34.0 °F 26.0 °F 28.9 °F 82% 30.17 in 3.0 mi South 10.4 mph - 0.00 in Snow Light Snow
8:08 AM 33.8 °F 26.4 °F 28.4 °F 81% 30.13 in 3.0 mi South 9.2 mph - 0.01 in   Light Drizzle
8:53 AM 35.1 °F 25.9 °F 30.0 °F 82% 30.13 in 4.0 mi SSE 13.8 mph - 0.01 in Rain Light Rain
9:53 AM 36.0 °F 26.7 °F 32.0 °F 86% 30.09 in 6.0 mi SSE 15.0 mph - 0.01 in   Overcast
10:53 AM 37.9 °F 28.9 °F 30.9 °F 76% 30.06 in 9.0 mi South 16.1 mph 26.5 mph N/A   Overcast
11:53 AM 39.0 °F 29.9 °F 30.9 °F 73% 30.04 in 10.0 mi South 17.3 mph 21.9 mph N/A   Overcast
12:34 PM 39.2 °F 30.8 °F 30.2 °F 70% 29.98 in 10.0 mi South 15.0 mph - N/A   Overcast
12:53 PM 39.0 °F 31.8 °F 30.0 °F 70% 29.99 in 10.0 mi South 11.5 mph - N/A   Overcast
1:53 PM 39.0 °F 30.3 °F 30.0 °F 70% 29.96 in 10.0 mi SSE 16.1 mph - N/A   Overcast
2:53 PM 37.9 °F 29.2 °F 32.0 °F 79% 29.94 in 5.0 mi South 15.0 mph - 0.02 in Rain Light Rain
3:53 PM 37.0 °F 28.5 °F 32.0 °F 82% 29.91 in 6.0 mi SSE 13.8 mph - 0.00 in Rain Light Rain
4:11 PM 37.4 °F 29.8 °F 33.8 °F 87% 29.87 in 5.0 mi SSE 11.5 mph - 0.01 in Rain Light Rain
4:53 PM 37.0 °F 29.3 °F 33.1 °F 86% 29.89 in 4.0 mi SSE 11.5 mph - 0.03 in Rain Light Rain
5:53 PM 36.0 °F 29.0 °F 34.0 °F 93% 29.88 in 3.0 mi SSE 9.2 mph - 0.02 in Rain Light Rain
6:53 PM 37.0 °F 31.0 °F 34.0 °F 89% 29.89 in 4.0 mi South 8.1 mph - 0.08 in Rain Rain
7:53 PM 37.0 °F 30.4 °F 34.0 °F 89% 29.87 in 5.0 mi South 9.2 mph - 0.03 in Rain Light Rain
8:25 PM 37.4 °F 30.8 °F 33.8 °F 87% 29.84 in 3.0 mi South 9.2 mph - 0.06 in Rain Rain
8:53 PM 37.0 °F 29.8 °F 35.1 °F 93% 29.87 in 4.0 mi South 10.4 mph - 0.10 in Rain Light Rain
9:10 PM 37.4 °F 31.4 °F 35.6 °F 93% 29.85 in 4.0 mi South 8.1 mph - 0.02 in Rain Light Rain
9:46 PM 37.4 °F 31.4 °F 35.6 °F 93% 29.84 in 4.0 mi SSE 8.1 mph - 0.05 in Rain Light Rain
9:53 PM 37.0 °F 29.8 °F 35.1 °F 93% 29.86 in 4.0 mi SSE 10.4 mph - 0.05 in Rain Light Rain
10:12 PM 37.4 °F 31.4 °F 35.6 °F 93% 29.84 in 4.0 mi South 8.1 mph - 0.00 in Rain Light Rain
10:53 PM 37.0 °F 30.4 °F 36.0 °F 96% 29.84 in 5.0 mi South 9.2 mph - 0.04 in Rain Light Rain
11:53 PM 37.0 °F 31.0 °F 35.1 °F 93% 29.81 in 4.0 mi South 8.1 mph - 0.01 in Rain Light Rain